| Date | Time | Temp. (oF) | Dew Point (oF) | Rel. Hum. (%) | Press. (in.) | Wind Dir. | Wind Speed (mph) | Hourly Rainfall (in.) |
|
|---|---|---|---|---|---|---|---|---|---|
| 1 | 03/23 | 00:00 | 57 | 56 | 97 | 29.59 | SSW | 7 | 0.00 |
| 2 | 03/22 | 23:00 | 58 | 57 | 99 | 29.59 | SSE | 4 | 0.00 |
| 3 | 03/22 | 22:00 | 59 | 58 | 98 | 29.59 | SE | 9 | 0.01 |
| 4 | 03/22 | 21:00 | 59 | 58 | 99 | 29.61 | SE | 7 | 0.02 |
| 5 | 03/22 | 20:00 | 61 | 60 | 98 | 29.64 | SE | 1 | 0.00 |
| 6 | 03/22 | 19:00 | 61 | 60 | 98 | 29.64 | SE | 8 | 0.00 |
| 7 | 03/22 | 18:00 | 60 | 59 | 99 | 29.65 | ENE | 4 | 0.01 |
| 8 | 03/22 | 17:00 | 60 | 59 | 99 | 29.67 | ESE | 7 | 0.01 |
| 9 | 03/22 | 16:00 | 60 | 59 | 99 | 29.70 | ESE | 8 | 0.09 |
| 10 | 03/22 | 15:00 | 61 | 60 | 98 | 29.71 | ESE | 7 | 0.03 |
| 11 | 03/22 | 14:00 | 61 | 60 | 97 | 29.78 | S | 3 | 0.05 |
| 12 | 03/22 | 13:00 | 61 | 59 | 96 | 29.81 | SE | 4 | 0.02 |
| 13 | 03/22 | 12:00 | 61 | 59 | 94 | 29.82 | SSE | 4 | 0.00 |
| 14 | 03/22 | 11:00 | 61 | 58 | 92 | 29.84 | SE | 6 | 0.00 |
| 15 | 03/22 | 10:00 | 60 | 57 | 93 | 29.86 | SE | 14 | 0.00 |
| 16 | 03/22 | 09:00 | 57 | 55 | 94 | 29.88 | E | 6 | 0.00 |
| 17 | 03/22 | 08:00 | 57 | 54 | 91 | 29.89 | ENE | 4 | 0.00 |
| 18 | 03/22 | 07:00 | 57 | 53 | 88 | 29.90 | SE | 2 | 0.00 |
| 19 | 03/22 | 06:00 | 58 | 53 | 85 | 29.90 | SE | 0 | 0.00 |
| 20 | 03/22 | 05:00 | 59 | 53 | 82 | 29.88 | SSW | 4 | 0.00 |
| 21 | 03/22 | 04:00 | 59 | 52 | 78 | 29.90 | SSW | 5 | 0.00 |
| 22 | 03/22 | 03:00 | 60 | 52 | 75 | 29.91 | SSW | 6 | 0.00 |
| 23 | 03/22 | 02:00 | 60 | 50 | 72 | 29.94 | S | 5 | 0.00 |
| 24 | 03/22 | 01:00 | 61 | 51 | 70 | 29.94 | SE | 5 | 0.00 |